Theta_e
308 309 309 310 309 310 310 309 310 310 310 310 310 310 310 310 311 310 311 310 310 310 310 311 310 311 310 310 310 310 310 308 308 308 312 315 305 306 307 307 310 312 312 310 310 309 309 311 312 311 313 314 315 317 316 315 315 313 318 318 315 316 316 318 318 314 313 315 315 315 313 314 317 316 322 336 344 346 350 350 346 344 343 343 342 341 341 342
308 308 309 309 309 309 309 309 309 309 310 310 310 310 310 310 310 310 311 310 311 310 311 310 310 310 309 310 311 310 310 308 309 312 316 310 307 307 307 309 312 313 312 311 311 309 310 313 312 312 315 316 314 315 315 314 313 315 319 317 316 317 316 317 316 313 314 315 315 315 313 314 314 314 319 336 343 348 360 352 345 345 343 341 340 340 341 341
308 308 309 308 309 309 310 309 309 309 310 310 310 310 310 310 310 310 310 310 311 311 311 310 310 310 310 310 310 310 309 308 317 326 320 311 311 307 309 312 312 312 312 312 311 309 310 310 309 311 315 316 316 314 314 314 313 315 317 315 316 318 315 316 314 314 315 314 315 314 314 314 314 314 317 336 345 351 361 357 355 350 343 343 340 339 341 341
308 308 309 308 308 309 309 309 309 309 309 310 309 309 310 310 310 310 311 310 310 310 310 310 310 310 310 310 310 309 308 313 326 326 318 316 313 307 309 312 313 313 313 313 311 309 309 308 308 311 313 315 317 312 313 315 313 313 314 315 318 316 314 315 314 315 315 313 314 313 314 315 314 314 318 335 340 340 348 355 360 353 342 342 341 339 340 341
307 307 308 308 308 309 309 309 309 309 309 310 309 309 309 310 310 310 310 310 310 310 310 310 309 310 310 310 309 307 311 321 321 318 317 318 314 309 308 311 314 314 314 313 310 308 307 307 309 313 313 315 315 312 315 315 312 312 313 315 317 313 313 314 315 314 314 312 312 314 314 313 314 315 318 326 326 327 340 350 351 345 341 341 340 340 340 341
307 307 308 308 308 309 308 308 308 309 309 309 309 309 309 310 310 310 310 310 310 310 310 310 309 309 309 309 308 308 317 321 316 317 317 317 315 310 309 311 314 314 314 312 308 307 308 309 311 314 314 314 314 314 316 313 310 313 314 314 314 312 312 312 313 313 314 313 312 315 313 313 316 313 318 326 323 323 336 347 347 341 340 340 339 340 340 341
307 307 307 307 308 308 308 308 308 309 309 309 309 309 309 310 310 310 310 310 310 310 310 310 309 310 308 308 310 312 318 323 315 314 316 316 315 311 309 312 313 315 316 311 306 307 312 313 313 316 314 314 314 314 314 312 310 313 313 314 312 312 312 312 313 312 313 313 312 314 311 315 314 311 331 350 347 340 342 346 345 341 339 339 340 341 340 340
307 307 308 307 308 308 308 308 308 309 309 308 308 309 309 309 309 309 309 309 309 309 309 309 310 309 308 309 314 318 321 324 315 315 318 315 314 311 310 311 313 315 315 310 306 308 312 314 314 316 314 313 313 312 312 310 310 312 312 312 311 311 312 311 312 311 312 311 312 312 310 315 312 320 350 361 352 346 345 344 342 341 341 341 341 340 338 336
307 307 307 307 307 308 307 307 309 309 308 307 307 308 308 309 308 308 309 309 309 309 308 309 309 308 307 310 314 318 321 320 315 318 319 316 314 312 311 310 312 314 311 308 306 307 311 314 315 316 314 312 310 310 310 310 311 311 311 311 310 311 312 312 311 312 312 311 312 310 312 316 312 332 357 352 348 348 343 343 343 342 342 341 340 337 335 334
307 307 307 307 307 307 307 307 309 308 306 307 308 308 307 308 308 308 309 309 309 309 308 308 309 308 308 311 315 313 315 318 317 319 316 315 313 312 313 311 312 312 308 307 306 309 312 314 316 314 314 312 309 310 310 309 311 312 311 311 311 312 311 310 311 312 311 311 314 312 315 316 311 332 357 349 348 348 343 345 343 342 342 339 337 335 333 332
307 307 307 307 307 307 307 308 308 307 306 307 308 307 307 307 306 307 308 308 309 309 310 309 308 309 309 313 318 313 313 317 316 316 312 313 312 312 313 312 312 310 308 307 307 310 312 313 314 313 314 313 312 311 312 311 311 312 312 312 313 312 310 311 312 312 312 312 315 313 313 314 310 327 356 351 347 347 345 346 343 343 341 337 337 334 333 331
306 306 307 306 306 306 306 307 307 306 307 307 307 307 306 306 306 307 307 308 309 309 309 309 308 310 310 314 319 315 312 316 314 313 312 311 311 310 311 311 312 310 309 308 308 309 310 313 313 314 315 314 312 311 312 312 311 313 312 313 314 314 312 313 314 313 313 313 314 315 311 315 312 317 343 349 347 348 346 346 344 342 339 337 337 334 333 331
305 306 307 305 305 304 304 305 306 306 307 307 307 306 306 306 306 307 308 308 309 309 309 309 308 309 311 317 318 312 310 314 313 312 312 310 309 308 309 309 310 309 308 307 309 309 309 312 313 315 315 312 313 312 312 312 312 313 311 312 314 316 316 312 313 312 312 313 314 314 310 318 317 314 338 351 347 348 347 346 345 341 340 339 336 334 333 331
302 304 305 305 304 304 304 305 305 306 306 306 306 305 305 305 306 307 308 309 310 309 309 308 308 310 315 320 314 310 314 314 314 314 312 309 309 307 307 309 308 308 307 306 309 310 311 312 311 313 311 311 312 310 313 314 313 314 311 316 314 311 316 314 313 313 311 313 314 314 311 315 315 317 340 351 346 348 349 346 345 342 341 338 337 335 334 332
300 301 303 304 303 302 303 303 303 304 304 304 303 304 305 304 306 307 308 310 309 309 310 309 309 311 318 322 314 312 317 317 317 316 312 310 309 309 308 307 308 308 307 307 309 310 311 311 310 310 310 311 313 313 315 317 319 316 311 319 320 312 314 317 314 314 312 311 313 312 311 313 313 324 344 348 346 349 348 347 345 343 341 339 338 335 334 333
299 300 301 303 303 301 301 301 301 302 302 302 301 303 303 304 307 308 310 311 310 310 309 310 310 311 319 323 316 314 317 318 319 317 314 311 310 311 310 308 309 309 309 310 310 310 311 311 311 312 313 311 314 319 319 320 327 325 315 317 321 315 313 316 314 314 313 311 312 311 313 315 314 329 343 346 346 347 348 348 345 343 342 339 337 335 334 334
299 299 300 301 303 302 301 300 301 301 301 301 302 302 303 305 309 311 312 310 310 310 309 311 310 310 317 317 315 316 317 317 317 317 314 311 310 311 311 311 311 310 310 311 310 311 310 310 311 313 320 321 320 323 319 317 323 328 325 321 321 318 313 315 316 314 312 310 312 311 314 315 318 334 344 344 345 346 347 348 344 343 341 339 337 335 334 334
299 299 299 300 302 303 302 301 302 301 301 302 302 303 305 307 310 312 312 310 309 310 309 311 310 312 316 313 313 316 315 314 314 316 314 311 311 310 311 312 311 311 311 311 311 312 310 313 317 316 323 326 322 323 322 321 321 320 322 321 324 322 315 315 317 317 314 310 312 311 312 314 318 333 341 340 343 346 346 345 342 341 340 339 337 335 335 334
298 299 299 299 300 302 303 303 303 303 303 303 304 307 311 312 313 313 310 310 313 313 313 315 313 312 314 313 314 313 313 314 314 314 313 312 311 310 312 311 310 312 311 313 313 313 311 314 319 315 317 321 318 321 321 321 321 315 314 319 322 321 317 316 317 318 315 311 313 312 313 314 317 328 335 337 341 344 343 341 341 340 339 339 337 337 335 334
299 299 299 299 300 301 303 304 303 304 305 305 306 310 315 318 320 319 315 314 317 315 314 317 315 313 312 313 313 312 315 315 312 311 312 312 311 311 311 308 310 311 312 318 317 315 314 312 316 316 318 324 323 322 319 316 317 315 316 320 320 318 317 317 316 318 318 314 314 315 318 319 320 328 334 336 341 344 343 341 341 339 339 338 337 337 335 335
298 299 299 299 299 299 302 304 304 305 306 306 307 311 315 317 317 319 321 321 317 315 315 315 314 313 313 313 313 314 315 315 314 313 311 311 311 310 311 310 311 311 314 319 317 314 313 313 317 320 321 323 323 323 321 318 319 318 319 320 317 318 318 318 320 320 322 322 317 318 322 319 318 324 332 336 340 344 344 341 339 338 338 337 336 336 335 334
298 298 299 299 299 300 300 304 306 305 306 307 308 311 314 314 313 313 316 318 317 316 316 315 313 313 313 312 314 314 314 316 318 315 311 311 311 310 311 311 312 315 316 316 315 313 313 316 319 319 318 316 317 323 324 322 323 320 320 319 316 318 318 320 329 329 328 327 320 320 321 321 326 325 327 335 337 339 341 340 339 337 337 336 336 336 335 334
298 298 299 299 300 299 299 303 305 305 307 309 308 310 313 312 313 313 313 316 317 316 318 317 316 316 316 315 315 315 316 317 317 316 312 310 311 311 311 312 312 314 315 315 316 313 314 321 321 319 319 316 316 322 322 320 323 322 318 315 316 319 316 317 329 332 330 327 322 327 327 328 334 328 324 330 334 337 337 337 338 336 336 336 335 335 334 334
298 298 299 299 299 300 301 301 303 307 309 309 308 311 313 312 314 314 314 319 320 318 318 317 317 317 318 317 316 317 318 316 316 315 312 310 311 311 311 313 312 312 313 317 320 315 314 319 319 319 323 321 318 320 321 318 321 328 325 319 320 322 318 317 324 331 334 329 326 333 331 326 329 328 328 330 334 339 336 335 336 334 334 334 334 334 333 334
298 298 299 299 299 300 300 300 305 309 308 307 310 313 314 315 316 314 317 323 323 322 319 315 316 318 317 317 316 317 317 315 316 314 311 311 311 310 311 311 311 312 313 315 318 316 315 315 314 314 319 321 318 320 325 322 320 327 332 330 326 324 323 324 331 336 333 326 321 323 322 323 328 327 325 325 331 337 334 335 336 333 334 334 334 335 333 332
298 299 299 299 300 299 300 306 309 308 306 307 313 317 317 318 317 315 322 329 328 326 322 316 317 317 316 317 316 316 316 316 315 313 312 311 310 312 312 311 312 314 314 315 316 316 317 318 317 316 320 323 319 318 322 324 321 319 325 333 332 330 326 326 333 331 325 322 321 325 325 327 329 324 320 323 331 335 333 334 335 333 334 335 333 333 332 332
298 299 299 299 299 299 303 308 307 305 307 311 317 318 316 317 315 315 325 328 326 325 321 314 314 316 315 316 315 316 318 318 315 312 312 312 311 312 313 314 312 311 316 318 316 318 319 321 321 320 323 324 321 319 321 324 323 318 323 331 331 330 327 327 331 325 323 323 324 333 331 323 326 325 321 322 327 334 335 334 334 334 335 335 333 331 331 331
299 299 299 299 300 300 301 304 306 308 310 313 316 315 315 315 314 319 323 319 316 318 318 314 312 313 313 313 314 317 318 317 315 314 313 311 312 312 313 315 312 313 317 315 317 323 322 319 322 321 320 319 321 326 326 322 319 323 329 328 325 328 330 334 333 327 328 323 321 333 329 317 329 336 325 322 324 329 334 334 333 334 333 333 334 332 331 332
299 299 299 300 300 300 303 306 308 310 313 312 312 314 314 313 317 325 322 315 313 316 314 312 314 313 313 312 313 316 316 315 315 315 312 311 312 313 312 313 314 314 313 314 320 325 320 317 322 320 317 321 327 331 327 321 319 325 327 322 323 329 332 336 333 330 334 326 322 333 326 316 332 342 329 322 323 321 326 331 328 329 330 331 333 332 331 333
299 299 300 300 300 302 305 306 305 306 310 308 309 314 315 318 328 328 320 315 316 318 313 311 314 313 313 312 312 314 314 314 316 314 311 312 313 312 311 313 316 317 320 323 322 320 320 320 321 319 317 324 330 326 321 321 319 320 322 320 321 328 334 339 337 333 332 326 327 334 330 321 327 337 332 324 320 318 321 328 327 325 328 331 332 332 332 333
299 299 300 300 301 302 303 304 304 308 309 303 308 316 314 321 330 326 321 318 318 320 316 312 314 314 314 313 313 314 313 314 315 313 314 314 312 313 313 313 317 321 328 330 322 320 323 319 318 320 318 318 319 316 315 317 318 319 323 321 317 324 329 334 335 331 328 328 331 335 330 322 324 330 329 324 320 318 319 324 327 326 328 333 333 331 331 333
300 300 300 300 301 301 302 304 307 309 305 301 312 322 320 318 319 323 326 321 319 322 318 314 316 316 315 314 314 314 314 314 315 314 315 314 314 315 313 316 318 317 322 326 321 323 323 320 319 318 317 315 314 316 313 315 321 319 323 326 321 323 324 327 331 327 328 329 328 331 326 320 327 329 323 322 321 320 320 321 325 327 329 333 333 330 331 332
301 301 300 300 301 301 302 302 303 304 301 304 318 330 328 319 317 324 325 318 316 319 316 315 315 314 315 315 315 315 315 315 316 315 315 313 315 314 311 317 319 316 323 325 320 320 322 324 324 317 317 317 314 318 315 315 319 315 319 324 322 324 324 326 328 322 324 327 322 325 323 320 329 327 320 322 322 323 324 324 328 330 330 332 330 330 331 331
302 301 300 301 300 301 301 300 302 304 303 309 323 327 320 317 322 325 322 318 318 316 314 314 313 313 316 316 316 315 315 318 317 314 314 314 315 316 314 313 313 319 327 323 318 321 322 323 325 319 318 317 314 318 320 322 320 315 317 318 319 328 328 324 327 325 325 326 322 321 319 324 328 323 323 324 323 327 328 326 329 331 330 330 329 330 331 331
302 301 301 302 300 301 302 301 302 304 306 317 328 324 316 317 323 324 323 322 318 314 313 312 310 314 318 319 318 314 315 320 319 315 314 316 318 321 320 314 314 320 323 320 319 320 317 320 327 322 315 314 313 314 318 320 318 314 315 314 315 324 329 322 321 328 331 326 322 320 319 327 327 320 323 325 324 328 329 329 330 329 329 330 329 329 329 327
302 302 303 302 301 302 301 301 302 304 312 322 322 320 321 321 320 320 321 318 313 312 313 311 313 317 319 322 321 316 315 319 322 319 316 316 317 319 319 316 315 315 317 324 326 319 315 321 326 320 313 313 313 312 313 313 315 316 312 314 316 316 325 326 317 322 329 324 323 321 318 324 325 320 323 325 327 329 329 330 330 329 329 329 327 328 326 325
303 305 306 305 305 305 303 302 303 306 316 321 318 321 325 322 319 318 317 314 311 312 311 312 317 320 320 322 324 320 316 316 321 320 319 322 321 319 319 318 317 313 314 322 324 321 323 325 324 317 311 313 311 312 314 311 313 317 312 314 316 312 322 331 324 323 322 320 325 322 317 322 327 326 325 325 330 332 331 331 330 329 329 327 326 327 328 327
304 307 309 308 308 309 306 303 305 312 321 321 321 326 324 319 317 316 313 311 310 310 310 312 316 319 318 320 324 322 316 319 321 319 321 323 321 320 319 318 317 313 313 317 317 318 322 323 323 317 312 314 314 316 320 317 312 312 313 315 315 317 323 323 321 324 320 320 322 319 318 322 325 326 325 325 331 333 332 333 331 330 329 327 326 327 327 327
305 309 314 311 309 310 307 306 309 317 321 320 323 327 321 318 317 314 313 313 310 310 312 314 315 316 318 321 324 320 316 321 320 315 320 322 319 321 320 318 318 314 314 315 314 321 324 320 320 319 313 313 318 320 321 320 316 312 316 317 317 326 328 319 318 323 323 321 319 318 321 326 328 327 326 325 329 332 332 332 332 330 328 327 326 326 325 325
307 310 311 309 310 310 308 309 313 319 319 318 323 324 318 317 316 314 315 313 310 311 313 314 313 313 317 318 318 316 315 320 316 314 322 324 320 320 319 318 317 314 316 316 317 324 323 315 319 326 319 314 317 317 314 316 316 314 317 318 317 320 318 316 317 318 321 327 326 323 322 327 334 332 327 325 326 330 332 331 331 329 328 328 326 326 326 325
307 311 309 309 312 311 311 313 317 321 322 319 319 320 317 316 316 315 315 312 311 310 310 311 310 312 315 314 314 314 315 317 315 313 319 320 318 319 317 316 314 313 319 322 321 322 319 317 327 331 322 316 316 313 311 311 312 314 316 315 318 321 317 317 318 316 322 329 327 325 323 327 335 332 328 326 325 328 329 329 331 330 329 329 326 326 326 325
310 313 311 309 311 313 316 320 319 319 322 321 318 317 317 317 315 314 312 311 311 309 308 309 310 311 312 313 314 314 313 314 313 314 317 316 317 318 314 313 314 316 323 320 314 318 324 328 329 323 315 312 312 310 310 308 310 316 315 313 320 325 322 327 328 322 321 319 320 325 325 328 334 330 327 326 323 324 326 327 330 328 327 327 326 325 324 324
313 313 311 308 309 314 319 321 318 316 320 321 316 313 314 314 313 311 311 310 310 310 309 309 312 312 310 311 313 312 314 314 312 314 318 316 317 315 312 314 317 318 323 319 312 317 326 323 319 320 322 318 314 313 314 312 312 316 314 314 318 316 318 328 331 329 325 319 321 322 319 326 331 325 324 326 324 324 324 324 326 326 325 325 325 324 324 323
311 311 313 309 306 314 320 318 317 318 320 319 314 312 313 311 310 310 310 310 309 310 312 311 312 313 310 311 312 310 312 314 313 313 315 314 315 314 313 316 318 318 319 318 317 318 318 315 317 323 326 324 319 320 325 322 315 313 313 315 315 313 320 323 322 327 327 319 323 326 322 327 327 319 321 325 324 324 322 321 323 325 326 325 324 323 323 323
310 312 314 310 304 311 318 313 312 316 318 316 314 314 312 310 311 310 309 309 308 308 311 312 311 311 312 314 316 313 313 315 315 315 315 316 315 312 312 315 317 319 321 325 327 324 319 322 328 329 325 323 323 324 329 325 316 313 314 316 316 317 320 317 317 328 325 313 319 330 328 325 322 318 320 322 322 323 322 320 320 322 324 323 322 322 321 321
313 314 313 312 307 309 314 311 309 312 314 315 313 311 310 311 312 310 308 309 308 307 309 308 308 314 317 317 319 317 315 314 315 315 315 317 316 311 311 315 316 320 326 328 328 329 326 323 328 331 326 324 323 320 319 317 315 313 311 314 319 319 321 323 322 326 325 316 317 323 322 321 319 318 320 321 322 322 321 321 321 321 321 321 320 321 320 320
311 310 308 310 310 309 312 310 308 309 311 314 312 309 309 309 310 310 310 309 308 309 310 306 305 312 315 316 318 318 315 314 314 313 312 313 316 315 311 310 311 317 324 322 320 331 333 320 317 322 319 315 316 313 309 310 312 312 311 312 317 319 324 328 321 315 318 320 317 318 319 320 316 315 317 318 319 321 321 321 321 320 320 319 318 319 319 319
307 307 305 306 309 310 310 309 308 307 307 310 310 308 309 309 309 310 310 309 307 308 313 309 304 305 306 311 318 317 315 317 314 312 312 310 314 317 315 313 311 312 318 319 318 328 332 318 312 316 314 310 310 309 309 312 310 311 314 313 314 319 321 320 315 312 315 318 319 318 318 317 312 311 312 312 313 316 317 315 316 318 318 317 317 318 317 318
305 306 306 307 309 310 309 307 307 305 305 309 310 308 308 309 309 307 307 312 311 308 311 310 305 303 303 307 315 313 312 316 314 311 310 311 313 315 314 316 313 308 313 319 317 320 323 316 313 319 315 310 309 309 309 313 313 312 313 313 314 317 318 316 313 312 315 317 316 316 317 314 309 308 310 309 309 311 310 310 312 314 315 317 318 317 316 316
303 303 305 307 308 307 306 306 306 305 305 306 308 307 306 307 309 307 305 310 312 309 310 309 304 304 302 304 310 309 307 311 311 309 309 310 314 313 310 312 311 306 310 316 314 317 321 314 315 326 321 310 310 312 311 314 316 313 313 314 316 316 316 318 316 312 315 313 310 313 318 313 308 307 308 307 307 308 308 309 310 310 311 316 319 318 318 317
299 299 301 306 306 303 304 306 307 306 305 305 305 306 305 305 306 308 306 306 307 308 310 308 305 305 304 305 307 306 306 309 310 309 310 310 311 311 309 309 309 307 310 314 312 319 324 315 315 327 323 310 311 313 314 318 318 316 316 315 315 316 315 314 311 309 311 312 311 316 316 310 308 309 306 305 305 306 307 308 309 309 309 312 315 317 317 318
300 300 300 305 305 301 301 303 305 306 306 304 304 303 303 303 303 308 310 306 304 307 309 308 307 306 305 305 305 304 305 308 309 307 307 307 307 308 307 307 307 305 307 311 312 317 323 318 315 322 320 312 312 314 319 322 318 316 316 311 309 311 310 309 308 305 306 309 313 315 311 306 308 309 306 304 304 304 304 305 306 308 309 308 310 310 311 313
Wind_Speed
14 14 14 13 14 13 13 13 13 13 13 13 13 12 12 12 12 12 12 11 11 11 12 12 12 12 12 12 13 14 17 19 19 14 9 12 12 11 8 9 9 8 8 9 8 3 2 2 2 1 2 1 1 1 2 3 2 2 3 2 3 3 4 4 5 4 3 6 7 7 6 5 5 5 1 5 8 5 6 6 3 6 8 8 12 24 29 25
14 14 14 14 14 14 13 13 13 13 13 13 13 13 13 12 12 12 12 11 11 12 12 12 12 12 11 12 13 14 17 18 17 15 14 13 9 8 11 14 9 6 7 7 8 5 3 3 2 3 3 1 1 1 1 1 2 3 3 2 4 4 5 5 5 3 3 6 8 7 4 4 2 3 0 3 2 3 7 4 4 8 10 11 16 25 24 23
15 15 15 14 14 14 14 13 13 13 12 13 13 13 12 12 12 12 12 11 11 12 12 12 11 11 11 12 13 14 16 14 9 10 9 7 10 12 14 15 10 8 8 4 4 4 4 2 2 4 4 1 1 1 1 1 2 2 3 3 5 5 5 5 6 6 7 6 7 8 5 5 4 3 0 4 4 3 4 3 3 6 8 11 13 17 19 19
15 15 15 14 14 14 14 13 13 13 12 13 13 12 12 12 12 11 11 11 11 11 11 11 11 11 10 11 12 13 12 6 3 5 3 3 5 11 18 16 11 11 8 4 2 3 4 3 3 4 4 1 3 1 1 3 2 1 3 5 6 4 3 7 7 8 7 5 4 7 7 8 6 1 2 6 5 4 3 5 5 10 12 14 12 13 15 14
15 16 15 14 14 14 14 14 14 13 13 13 12 12 11 11 12 11 11 11 11 10 11 10 10 10 10 11 10 11 7 2 2 4 3 3 3 9 18 18 14 12 9 5 3 4 4 3 4 4 3 1 2 2 2 5 2 1 3 6 6 3 3 9 7 6 6 3 4 6 5 5 4 2 3 7 5 4 6 7 6 12 16 16 15 14 13 12
15 16 15 15 14 14 14 14 14 13 13 12 12 12 11 11 11 11 11 11 11 10 10 9 10 10 10 10 8 5 2 0 5 5 3 3 3 7 16 18 16 12 9 6 4 5 3 4 4 2 2 1 1 2 4 4 3 2 5 4 7 5 5 8 6 5 4 2 4 3 4 3 4 5 2 7 6 6 6 4 6 10 14 16 15 14 13 12
15 15 15 15 14 14 15 14 14 13 13 12 12 12 11 11 11 10 10 10 10 10 9 9 9 9 9 7 3 1 2 5 9 5 5 5 4 8 16 19 16 12 10 8 5 4 4 5 3 3 3 1 3 5 5 3 3 4 5 5 7 6 7 9 8 7 4 4 7 2 4 5 4 5 0 1 4 4 2 9 12 11 13 15 14 12 11 10
15 15 15 14 14 14 14 14 14 13 13 12 12 12 11 11 10 10 10 9 10 9 8 7 8 8 7 5 1 2 1 8 9 5 6 7 7 10 17 19 17 13 12 12 8 6 4 6 4 3 2 2 3 3 5 1 1 4 6 5 5 5 8 10 9 9 7 7 6 1 3 8 8 3 3 4 6 5 7 13 14 13 13 12 12 11 9 9
16 15 15 14 14 14 14 14 13 13 13 12 12 12 11 11 10 10 9 9 9 8 7 6 6 6 5 3 1 2 4 6 5 4 7 8 9 11 17 19 19 15 12 12 10 9 6 4 4 4 3 4 3 3 3 1 2 5 7 5 4 6 9 9 8 9 8 5 3 3 6 10 7 3 3 5 3 5 8 13 14 14 14 11 10 9 8 9
17 15 15 14 14 14 14 13 13 13 13 12 12 11 11 11 10 9 9 9 8 7 6 4 5 4 3 2 2 0 4 3 2 4 6 8 10 12 15 16 19 18 12 9 11 10 6 5 4 4 4 3 3 3 2 4 4 5 5 5 6 9 9 6 7 8 5 5 6 7 7 7 2 4 1 4 5 7 10 12 11 13 12 10 9 7 8 8
18 16 15 15 14 14 14 13 13 13 12 11 12 11 11 10 9 9 8 8 7 7 5 3 4 3 1 2 3 4 5 3 2 3 5 9 11 12 15 16 17 20 14 8 11 13 7 6 5 3 2 2 2 3 3 4 3 4 3 5 7 7 7 5 6 6 3 3 6 8 5 4 2 3 5 6 8 9 12 12 10 11 9 9 10 7 7 6
18 17 16 14 14 13 13 12 12 12 11 11 12 11 10 9 9 8 8 8 7 6 4 2 2 1 1 2 5 9 4 2 2 4 6 9 10 10 13 15 16 19 17 8 9 16 14 8 5 3 2 1 1 3 4 4 2 4 1 3 8 7 6 7 5 5 5 3 5 8 2 4 1 4 6 8 9 8 11 13 10 9 8 9 9 7 6 6
19 18 16 15 13 13 12 11 11 11 11 11 12 11 9 9 9 9 9 7 6 5 3 2 2 2 1 1 8 10 6 4 6 6 8 7 8 8 10 13 13 16 17 11 10 16 18 11 6 4 3 2 3 4 0 1 1 4 1 1 5 7 6 6 1 1 3 3 6 7 3 6 5 7 5 9 10 10 11 12 10 8 8 8 7 6 6 6
21 20 18 15 13 12 11 11 10 10 11 11 11 10 10 9 8 9 8 7 6 4 3 2 1 1 2 6 11 7 6 7 9 11 9 8 7 5 10 12 10 13 15 14 14 13 11 9 6 2 3 4 4 5 3 5 3 3 2 1 2 2 5 7 2 0 1 4 5 7 4 7 6 7 7 10 11 14 13 12 10 8 8 7 7 6 6 6
22 22 20 17 14 12 11 10 10 10 11 11 10 10 9 8 8 8 7 7 5 3 3 2 3 2 1 9 11 6 2 5 11 15 12 11 9 6 10 14 12 13 14 15 16 13 7 4 4 1 4 3 1 3 4 5 3 3 2 3 3 0 5 9 5 5 5 5 3 7 4 5 5 7 9 10 10 13 13 11 9 9 7 7 7 6 6 5
22 23 22 19 15 13 11 10 10 10 10 9 9 9 8 7 7 6 5 5 3 3 4 2 3 3 0 6 6 4 4 6 9 13 14 14 12 7 8 12 10 10 12 14 15 13 8 4 3 2 2 2 4 4 3 4 4 3 2 2 4 2 3 7 5 6 8 4 1 4 4 3 4 7 8 9 9 9 11 10 9 9 7 7 7 6 5 4
22 22 23 22 18 14 11 11 10 10 9 9 9 8 7 6 5 4 3 2 1 4 6 1 1 2 4 8 5 5 5 7 7 11 17 17 14 9 5 5 5 5 7 11 11 8 5 3 1 1 1 3 3 4 3 3 4 4 2 1 4 3 2 4 6 6 4 5 4 4 5 2 2 6 8 8 9 10 11 11 9 8 7 6 5 5 6 5
21 22 22 23 21 16 12 11 11 10 9 8 9 8 6 5 4 2 0 3 3 3 3 2 2 0 4 6 4 4 5 5 7 12 18 18 16 13 6 3 1 1 1 4 4 3 1 1 2 1 3 4 3 5 2 4 3 2 2 1 3 3 2 4 5 5 3 3 5 4 3 2 3 5 8 6 7 9 8 8 8 8 7 6 5 6 7 7
22 21 21 22 22 19 14 12 11 10 9 8 7 7 3 2 2 1 3 4 4 2 3 3 3 1 2 4 5 7 10 8 5 10 16 18 15 12 7 2 2 3 2 1 2 1 1 2 3 1 2 2 2 5 6 7 6 5 4 3 3 4 4 6 6 6 3 2 4 5 4 3 4 6 6 6 6 5 3 5 7 7 7 7 6 7 8 9
22 21 21 22 22 21 17 12 11 10 9 7 5 4 2 1 2 1 2 3 5 6 6 5 7 4 6 6 4 6 10 8 5 9 14 18 12 6 3 1 3 3 2 3 2 1 3 1 2 4 6 7 7 7 7 4 5 4 3 3 5 4 5 6 6 6 1 4 1 2 6 6 8 10 9 8 6 5 6 6 7 8 7 8 9 8 9 9
22 22 21 21 21 22 20 15 11 10 10 7 4 2 1 1 2 2 2 4 8 10 11 10 11 9 11 10 3 3 5 5 4 5 12 16 10 5 1 1 3 0 3 3 2 2 4 2 6 9 10 8 5 4 4 2 3 3 3 3 4 4 5 6 4 7 3 5 3 1 8 3 3 7 9 10 9 7 10 11 10 10 9 8 8 8 8 6
23 22 21 21 21 21 21 16 12 11 10 7 4 2 3 3 4 4 2 4 9 11 14 12 10 10 13 14 10 1 1 2 6 6 8 11 7 5 2 3 5 3 2 3 2 2 2 3 10 9 6 4 3 5 4 2 2 2 1 2 2 3 4 6 5 7 6 5 1 1 6 1 4 2 5 10 12 10 11 13 12 12 11 9 9 9 8 6
22 22 22 21 20 20 20 17 13 12 9 6 5 5 5 10 9 7 2 3 7 7 9 10 8 8 9 11 10 6 4 4 4 6 8 11 5 5 4 4 5 3 1 4 4 2 1 6 9 4 6 4 3 3 4 1 1 2 2 2 2 3 1 3 6 7 6 3 2 4 5 3 6 4 3 5 3 3 5 8 8 9 11 11 11 10 11 11
22 23 22 21 21 19 19 18 15 9 7 8 9 7 11 16 15 8 1 2 5 4 5 9 7 6 7 6 7 10 4 4 5 4 8 12 4 3 5 4 4 2 2 4 6 5 6 9 5 3 5 6 4 3 3 2 3 3 3 4 2 4 2 4 5 5 5 5 4 6 6 4 5 2 3 4 4 3 4 5 5 5 7 7 7 8 10 11
23 23 22 23 22 20 20 17 8 4 9 10 9 11 15 17 18 8 2 1 4 5 4 5 5 5 8 6 8 9 2 3 6 5 10 13 7 4 3 3 4 3 4 6 6 4 8 7 2 1 2 5 5 5 5 6 3 4 4 6 7 5 4 4 3 4 4 5 4 5 5 3 5 2 4 2 1 2 3 5 6 5 5 5 6 7 8 8
24 23 23 22 21 22 18 8 3 7 11 7 6 13 12 14 17 6 4 3 3 5 3 2 3 4 7 6 6 6 2 4 8 9 11 12 10 6 3 2 1 3 5 5 3 2 5 4 2 3 3 4 4 4 5 7 4 2 4 6 6 6 3 2 4 5 3 1 3 4 5 3 5 2 4 3 5 5 3 5 5 5 6 5 6 6 7 7
24 23 23 21 21 21 12 5 9 11 6 3 9 14 10 12 13 3 4 5 3 3 1 1 0 4 5 5 6 7 2 4 3 7 9 12 9 3 3 3 1 3 4 3 0 2 3 4 3 4 3 4 4 4 6 8 7 3 5 5 7 5 4 3 5 4 1 2 3 5 4 2 3 3 5 2 4 5 5 7 6 6 7 5 6 7 7 8
24 24 23 21 19 17 11 10 13 7 2 6 12 13 11 11 7 2 4 3 2 2 2 2 0 4 2 1 7 6 4 1 2 3 7 14 10 2 3 6 5 5 3 4 3 5 2 2 2 3 3 3 4 5 7 9 4 6 6 7 5 5 6 5 6 3 2 2 2 7 4 2 3 4 4 2 4 4 7 9 9 9 8 7 7 7 7 7
25 23 23 22 19 16 10 8 8 5 4 9 14 14 12 8 3 4 4 0 2 1 1 1 0 2 0 2 5 6 4 1 1 3 1 9 8 1 3 6 6 5 2 4 5 6 3 4 5 5 4 5 6 5 8 10 3 4 5 5 4 4 4 4 5 4 3 3 2 7 3 2 3 5 4 3 3 1 6 8 8 8 7 7 7 7 8 7
25 23 22 22 19 13 7 9 13 9 6 11 16 15 10 4 4 4 1 3 2 1 1 0 1 1 3 3 3 5 4 2 1 1 3 2 3 1 2 3 6 4 1 3 2 5 5 3 3 4 4 6 5 3 5 7 4 3 5 5 5 5 4 4 3 4 5 2 5 7 2 3 1 4 2 1 1 3 6 7 6 7 6 6 7 8 8 8
25 23 21 20 18 10 4 8 10 4 4 14 17 11 5 3 4 4 3 4 2 2 1 0 2 1 3 3 3 3 4 3 1 2 3 2 1 1 1 2 3 3 3 4 2 5 7 3 1 3 3 3 3 3 1 2 3 5 5 4 3 2 4 4 4 4 4 2 6 6 2 4 2 4 4 3 5 5 6 7 7 9 10 8 7 7 7 6
26 23 21 19 18 14 11 8 6 5 9 15 12 5 4 2 1 2 4 3 1 2 1 1 2 2 1 2 2 2 3 3 2 3 4 3 4 4 3 4 4 2 2 3 2 4 4 3 3 5 3 3 5 2 1 5 5 5 5 5 3 1 3 1 3 2 2 3 4 3 1 2 3 5 5 6 7 6 5 6 5 6 8 9 8 7 6 6
27 25 22 19 16 18 19 15 12 11 11 9 5 4 6 3 2 5 4 2 1 2 1 1 4 3 2 1 1 2 1 3 5 3 3 4 4 6 5 2 5 3 2 4 2 1 3 5 5 4 4 1 6 5 2 2 1 4 4 4 4 2 2 1 3 1 1 2 3 4 1 1 2 3 4 7 6 4 4 1 3 4 3 5 6 5 5 5
29 25 22 19 17 20 20 16 13 10 6 3 3 4 5 3 4 4 3 3 3 3 3 3 7 5 1 1 1 1 1 3 4 4 3 4 4 4 4 2 2 3 2 3 2 3 2 3 3 2 2 1 3 5 5 5 3 3 4 5 5 4 4 3 3 2 2 1 2 4 0 3 2 2 4 6 5 3 7 6 7 8 7 7 8 7 7 6
30 24 21 18 18 20 17 15 12 8 4 2 6 4 4 4 4 2 2 3 2 3 4 5 5 3 2 2 2 1 0 2 1 3 3 4 4 5 4 4 4 4 4 3 3 2 4 4 6 4 2 2 3 3 5 6 2 2 2 5 3 4 5 2 2 5 3 1 0 2 1 2 2 3 5 5 4 6 8 8 9 8 7 8 9 8 8 7
30 24 17 13 16 17 13 11 13 12 7 5 5 2 4 4 3 2 2 2 1 3 5 7 3 2 2 3 3 4 2 0 0 1 2 2 3 3 2 3 5 6 6 4 3 1 3 4 6 4 2 3 5 4 3 4 2 1 2 3 4 4 7 5 1 1 4 3 1 1 1 2 2 2 6 5 5 7 7 7 9 9 8 9 8 8 8 7
28 21 10 9 14 14 11 10 16 17 7 6 4 4 4 3 4 3 1 2 1 2 3 3 2 1 1 2 1 4 4 2 2 1 2 1 0 1 2 3 3 7 7 5 2 3 4 2 6 1 0 4 3 3 4 3 4 4 2 5 2 2 5 5 2 3 4 2 3 2 1 1 1 1 5 5 4 4 6 6 6 9 8 6 5 8 9 8
21 14 7 9 13 9 10 13 20 15 5 5 3 3 3 3 3 2 2 4 3 3 2 2 3 1 3 2 1 2 2 1 2 1 1 2 2 2 2 3 2 4 6 5 2 1 4 1 7 2 3 5 5 5 4 4 2 4 3 3 4 3 1 1 3 2 2 2 2 3 1 2 2 2 3 2 3 2 4 4 5 6 6 4 4 7 7 7
11 6 3 11 15 4 14 20 19 9 5 4 3 2 3 3 4 2 2 4 2 3 2 4 3 0 2 4 3 3 1 1 2 1 1 1 2 2 2 3 1 3 1 5 4 0 3 3 4 5 2 3 5 5 1 4 5 3 2 3 2 3 4 2 2 3 4 3 2 1 2 1 4 4 5 6 6 5 5 4 4 5 4 3 3 5 5 5
4 1 2 15 14 8 21 20 11 5 3 4 4 3 2 2 3 3 3 3 2 3 3 3 3 1 2 3 3 3 4 3 2 2 2 1 1 2 3 3 1 3 5 6 4 1 3 4 3 5 4 3 2 0 3 3 2 2 3 3 3 2 3 2 1 2 4 4 3 2 0 4 5 3 5 7 7 7 7 6 5 4 5 4 4 5 5 5
3 2 3 16 8 16 18 11 4 3 4 2 1 3 2 2 3 4 4 4 2 4 5 4 4 4 3 2 3 3 3 4 2 2 1 2 2 1 3 4 3 0 3 6 4 1 2 3 3 1 3 3 2 3 1 2 3 4 3 1 1 3 4 3 1 1 2 4 4 5 2 5 5 2 4 6 6 7 8 9 7 5 6 6 4 5 6 6
3 1 4 16 5 12 6 5 2 1 3 3 2 3 2 2 2 3 4 4 3 5 4 4 5 4 3 3 3 2 2 3 2 2 1 2 4 3 3 4 3 2 4 3 1 2 3 4 3 1 1 1 4 4 4 2 3 6 4 1 2 3 4 5 3 3 1 3 2 4 2 5 5 1 1 4 4 3 4 8 8 6 4 4 4 4 4 5
3 2 6 19 9 9 2 5 2 1 0 3 2 2 2 1 2 3 3 2 2 4 3 2 3 2 2 2 1 1 2 2 2 1 1 0 2 3 1 3 4 5 4 2 1 1 2 4 3 1 3 3 4 5 5 4 5 6 3 2 3 2 2 5 5 3 3 3 2 4 1 4 5 4 1 3 2 2 2 3 6 6 3 3 4 4 4 5
2 3 4 20 19 2 5 2 1 1 2 3 3 2 3 2 3 4 4 1 2 2 1 1 2 2 1 1 3 3 2 2 2 1 1 2 2 3 5 4 3 4 2 3 3 1 0 2 3 3 3 4 5 5 6 5 4 3 3 4 3 3 4 3 1 3 3 3 4 5 2 6 5 4 3 4 5 5 3 3 4 6 5 5 5 4 4 5
3 1 3 14 22 9 4 1 1 1 3 2 2 3 4 2 2 3 1 2 3 3 1 2 3 3 3 3 4 4 5 4 2 2 3 3 4 4 8 8 4 3 1 3 4 3 2 2 3 5 4 2 1 2 3 2 3 2 3 6 5 4 5 3 2 4 2 3 4 5 4 5 3 4 4 4 7 6 4 3 3 4 6 6 5 5 5 5
2 3 2 6 11 7 1 1 3 2 2 1 1 3 4 3 4 5 4 4 4 4 4 3 4 4 5 5 5 5 7 5 3 3 4 4 3 3 7 7 7 5 3 6 7 4 4 2 2 5 6 5 5 4 4 3 3 1 2 5 5 4 4 5 4 2 3 3 2 2 4 4 1 1 2 3 6 8 7 7 6 6 6 6 5 5 5 5
2 2 3 3 3 4 4 6 7 5 2 2 3 3 5 4 4 5 5 4 4 4 5 5 7 5 4 3 4 4 5 6 5 5 4 4 3 4 6 6 8 10 7 5 6 3 5 3 2 5 5 2 4 3 1 3 5 4 3 2 3 3 5 6 3 2 4 5 1 5 2 6 3 1 3 3 2 4 5 5 5 5 3 3 3 4 5 5
3 1 2 2 2 2 4 6 8 7 8 6 3 2 5 7 6 5 4 3 5 5 3 5 9 8 5 2 3 3 4 4 5 5 4 4 4 5 6 4 7 10 7 4 4 3 6 1 1 5 5 3 4 4 4 5 4 3 3 3 3 3 6 6 2 1 4 5 4 4 3 4 1 4 5 5 4 2 1 3 2 1 2 1 4 5 5 5
3 2 3 2 2 1 1 4 7 8 12 9 4 4 6 7 7 5 3 2 5 6 4 4 6 9 9 6 4 3 3 2 3 3 3 4 4 3 5 4 5 8 7 4 3 3 4 1 1 5 4 4 4 3 5 6 5 4 5 4 3 4 6 6 3 2 5 5 4 6 8 4 2 3 5 5 4 1 3 6 6 6 6 3 3 5 4 5
2 1 3 3 3 3 2 3 5 7 9 8 6 6 6 6 6 5 4 4 3 5 5 5 3 5 8 9 7 5 1 2 3 1 1 2 3 3 3 1 3 6 7 4 3 2 3 2 0 4 4 2 4 4 5 6 6 6 6 6 4 6 6 6 4 3 5 5 4 8 9 5 4 3 5 5 5 6 8 8 8 7 7 6 5 3 2 3
3 2 1 2 3 5 4 4 4 5 6 7 6 6 7 7 7 4 4 5 3 2 2 3 3 4 5 8 8 3 2 4 4 4 3 2 1 1 1 2 1 5 6 4 3 4 4 3 1 5 4 1 2 3 4 6 8 7 6 7 6 5 4 4 3 3 1 4 5 7 6 1 4 4 5 7 8 10 10 8 8 7 7 7 7 6 5 4
8 2 3 3 3 5 4 3 5 4 2 4 6 7 7 8 9 4 4 5 6 5 2 3 3 4 5 8 7 2 4 5 6 6 5 4 4 3 3 4 1 2 3 3 3 2 3 4 2 3 3 2 4 1 2 5 6 3 3 3 3 3 6 5 5 6 4 3 5 4 3 2 3 3 5 8 10 11 9 7 6 6 7 8 8 8 7 6
Wind_Direction
317 314 310 308 307 306 306 306 307 307 308 307 309 310 311 314 313 314 314 313 313 313 314 312 312 314 314 317 322 320 314 312 313 310 267 263 273 259 233 193 183 185 209 231 228 240 18 38 10 76 102 95 163 218 187 173 138 86 94 139 223 207 209 202 186 171 190 269 294 318 352 36 339 334 61 51 41 78 77 31 35 31 45 89 108 127 140 147
314 312 309 307 306 305 305 305 307 308 308 308 308 309 309 312 313 314 313 313 314 312 314 313 313 313 315 320 321 317 314 314 309 285 262 266 272 242 196 178 187 192 187 205 212 191 100 63 30 72 76 34 287 258 205 204 160 137 126 188 228 203 216 214 201 213 230 266 295 304 322 11 290 249 33 99 51 55 84 40 42 66 73 88 107 124 137 145
313 311 309 306 304 304 303 304 305 303 305 307 306 306 308 309 311 313 314 314 312 312 314 314 315 313 319 321 316 317 315 319 305 267 272 277 247 222 185 176 188 186 174 184 207 185 146 132 74 73 70 0 285 285 297 265 198 170 148 219 246 215 236 249 221 230 236 253 295 303 318 335 279 232 334 124 99 30 122 158 98 104 115 115 116 126 137 144
313 311 309 305 303 303 301 300 300 299 302 303 303 304 306 308 309 311 312 313 311 312 314 314 314 312 319 320 314 317 320 329 287 257 296 306 241 202 186 182 178 176 178 189 194 155 153 127 71 69 79 0 307 4 280 260 221 195 169 205 243 209 251 263 229 235 241 223 263 297 324 320 298 334 76 113 93 338 254 228 182 153 144 133 132 136 141 145
314 311 309 305 302 302 298 296 297 299 299 299 301 301 303 308 308 309 310 308 309 309 311 313 315 317 319 317 313 316 333 32 269 278 298 293 265 194 188 184 180 179 177 194 194 148 147 101 71 55 67 5 328 37 247 248 155 176 226 211 236 214 250 266 244 240 241 218 266 299 314 294 310 25 115 129 145 235 228 230 196 155 146 141 142 144 145 148
314 311 309 304 302 300 296 295 296 297 297 297 300 301 302 305 305 307 307 306 308 306 309 314 318 321 317 316 316 316 15 110 279 286 270 250 240 197 184 184 188 188 184 194 185 147 136 86 74 70 76 53 217 186 247 259 146 207 269 236 242 225 225 269 273 249 216 219 262 262 282 297 356 327 176 152 196 236 225 184 135 131 137 139 140 145 148 148
316 313 309 304 302 298 294 294 295 295 295 295 297 299 299 300 302 302 302 304 305 304 307 313 319 321 322 328 322 21 71 263 277 278 250 231 209 190 181 187 193 194 196 196 165 134 122 102 111 141 103 324 210 209 243 256 170 202 260 263 255 241 234 259 268 261 218 214 243 239 323 309 283 281 50 96 284 286 139 112 111 122 130 134 138 143 142 135
320 316 310 305 300 294 291 292 294 293 292 293 295 299 298 298 300 299 302 302 299 301 301 304 319 322 329 351 79 7 311 252 274 280 242 221 204 186 179 186 192 194 196 199 180 149 137 126 158 149 105 257 191 209 242 245 250 209 233 257 263 258 252 257 263 264 243 230 247 262 291 261 238 220 55 335 333 20 99 110 118 127 128 135 136 134 129 120
326 320 312 306 299 293 290 290 292 291 290 292 295 298 297 297 298 299 300 298 297 298 297 304 317 321 334 359 57 334 271 245 274 266 227 216 214 191 182 187 192 194 191 201 191 167 171 157 182 180 178 231 197 233 234 171 270 217 219 255 275 275 266 264 265 256 242 230 207 180 242 254 239 126 38 303 32 71 105 113 124 131 131 136 128 122 119 118
332 324 315 308 303 297 293 291 290 288 289 290 293 296 296 297 295 294 292 292 294 292 296 307 308 314 328 346 88 204 283 293 270 229 220 224 217 188 185 191 191 191 186 194 190 175 172 165 182 177 177 234 222 236 185 158 220 217 223 263 259 267 270 264 265 251 226 223 197 186 232 263 258 123 225 268 118 115 114 114 129 132 133 132 120 120 121 125
337 330 321 313 308 302 296 291 286 285 289 289 290 292 294 297 297 296 294 290 287 285 287 293 302 302 306 60 124 219 283 320 266 230 235 231 219 199 195 195 191 191 184 179 193 193 187 172 160 127 170 258 257 269 252 192 216 257 272 299 279 285 287 259 265 258 187 220 204 172 227 286 46 143 200 186 142 137 127 126 134 128 130 132 129 131 134 139
342 335 327 320 313 305 299 291 285 285 289 287 285 289 295 299 301 298 294 292 288 280 273 270 285 245 73 68 204 233 258 358 317 247 245 240 230 226 213 202 196 195 189 176 200 208 207 192 132 124 223 265 327 291 260 214 232 286 307 310 297 338 320 256 249 236 166 208 195 148 300 309 253 238 202 157 139 136 130 133 134 129 137 140 142 141 136 144
346 341 334 327 318 310 305 296 290 290 287 285 287 294 299 297 297 292 288 288 283 278 268 248 245 231 67 266 240 248 253 285 304 262 246 244 236 236 217 206 204 203 199 196 214 217 218 213 164 181 221 145 261 259 294 353 344 317 41 139 303 354 325 267 232 225 162 207 179 139 289 275 262 263 191 148 142 136 137 144 140 138 150 151 153 145 136 147
353 349 342 333 325 316 309 303 298 293 289 291 294 297 296 291 287 284 282 279 274 273 265 236 221 158 116 257 269 288 273 260 263 246 231 221 217 210 197 200 204 205 207 217 232 234 227 218 187 221 242 175 233 274 346 1 6 332 351 61 352 357 292 288 298 316 273 244 166 134 240 253 264 254 180 158 153 147 148 152 147 147 158 160 158 148 145 156
357 354 349 341 333 325 315 307 303 297 295 295 298 298 294 287 282 281 278 273 267 238 229 217 210 161 41 278 278 303 270 226 232 225 213 207 196 175 188 197 207 211 216 230 240 249 254 217 179 209 259 231 48 6 343 350 0 1 0 327 333 165 278 299 284 200 216 253 158 140 217 269 259 219 180 166 162 152 150 151 152 154 152 156 161 153 145 155
357 357 355 348 338 328 319 310 303 298 298 300 303 300 293 288 280 274 271 267 262 207 199 213 218 177 33 282 285 302 230 210 229 212 203 211 199 183 187 193 215 226 230 243 248 260 270 241 194 173 243 324 60 74 33 7 345 356 67 256 283 305 306 315 306 230 207 211 208 177 195 269 254 205 176 165 161 149 147 152 155 156 151 156 165 161 150 156
356 356 356 354 345 330 320 315 309 305 307 310 307 300 293 287 269 267 282 262 231 195 184 188 295 173 258 275 294 311 248 216 224 198 198 211 208 204 179 174 222 235 240 254 255 263 263 228 242 340 23 27 77 93 50 355 310 318 14 277 260 260 283 305 305 286 213 179 216 218 191 247 283 179 168 164 160 153 158 164 159 151 152 157 160 165 161 163
355 354 354 355 351 337 323 318 319 317 320 322 314 308 295 268 252 267 161 136 117 140 188 265 334 122 268 276 286 310 305 263 217 189 196 205 213 220 209 176 174 92 343 299 273 266 260 295 45 35 357 13 50 84 111 228 210 233 284 329 291 275 249 265 277 293 294 198 194 191 189 351 26 149 162 161 157 160 168 162 149 144 153 162 166 172 169 173
353 352 352 352 353 347 330 319 325 326 326 333 323 318 308 232 218 145 139 141 122 136 240 229 181 174 263 259 271 292 313 307 221 189 198 204 213 224 220 194 90 88 73 357 308 296 122 25 34 82 302 287 201 144 179 210 174 188 224 196 248 277 270 259 257 271 279 145 165 181 167 136 147 161 160 151 138 133 122 125 137 148 158 171 183 183 175 180
351 351 350 349 351 350 339 324 326 324 326 337 330 331 2 74 28 29 172 195 207 225 250 215 187 238 284 269 279 304 318 315 223 193 200 202 195 192 202 83 62 71 127 177 234 294 113 110 260 219 222 223 211 193 200 197 150 179 229 208 240 259 272 275 273 289 339 101 319 189 139 150 176 180 172 152 131 124 133 148 159 162 169 182 190 189 181 186
348 348 347 347 347 348 346 332 321 320 325 326 316 325 195 180 346 305 253 241 234 227 242 231 200 225 260 260 276 13 347 323 275 231 202 196 168 139 212 118 103 320 251 180 178 340 81 138 234 223 220 218 191 182 211 210 153 181 209 213 262 253 259 277 277 308 11 93 341 45 122 140 193 184 176 153 154 171 169 173 176 171 178 190 191 186 181 184
346 345 344 344 344 345 345 336 321 319 324 317 295 230 227 270 286 279 289 287 261 223 227 238 223 238 255 262 270 263 105 270 300 295 196 177 150 161 210 116 141 214 254 108 99 334 37 236 244 233 209 194 151 151 167 184 142 138 190 178 285 266 282 304 305 323 3 85 357 63 118 233 299 263 209 180 180 189 181 180 177 171 177 189 190 182 175 177
343 342 341 341 340 340 342 337 321 314 321 312 269 231 292 324 317 294 276 297 282 226 213 226 223 239 251 264 251 186 160 200 256 285 189 160 158 179 160 133 167 194 120 124 153 163 258 250 239 198 140 164 236 185 144 42 58 161 196 119 286 284 0 310 309 329 347 46 104 106 91 316 322 353 273 243 213 172 171 178 173 174 183 188 188 181 176 179
341 340 339 336 336 335 337 331 314 311 327 306 280 287 329 337 336 328 244 257 292 267 223 209 199 216 231 246 198 163 167 193 196 259 180 160 159 159 162 160 150 189 210 158 149 166 242 248 216 128 132 158 226 245 163 201 285 256 214 148 209 274 234 231 282 325 340 6 56 80 53 337 339 9 244 290 0 72 140 176 183 197 196 175 172 185 187 186
341 339 335 334 333 331 332 326 304 323 331 303 292 325 338 334 336 349 94 0 300 283 274 210 190 217 216 190 159 159 164 215 208 213 172 169 170 135 177 183 133 209 213 142 133 190 255 257 177 216 240 149 186 237 194 180 217 291 246 190 188 202 224 267 332 23 31 5 0 55 63 301 318 311 218 242 353 139 162 199 192 190 194 161 163 193 195 197
340 337 334 333 331 329 332 328 302 334 323 299 322 337 331 326 337 8 108 24 310 276 300 182 180 202 197 176 160 141 105 256 227 192 172 178 179 142 147 203 116 208 188 145 141 204 261 288 107 185 228 136 164 239 219 164 141 302 250 196 158 138 136 16 33 58 84 303 323 52 111 235 316 306 232 224 204 204 212 223 206 186 199 176 164 192 198 197
338 335 333 330 330 334 335 307 313 322 308 311 344 339 326 324 337 33 98 19 316 262 216 173 165 166 187 189 153 125 149 264 222 177 179 178 181 142 151 196 226 200 172 116 38 238 247 322 38 126 136 124 152 228 212 147 121 241 233 146 124 130 144 123 79 76 171 213 335 11 92 134 319 278 281 288 194 223 236 224 222 210 207 181 160 186 203 200
335 333 331 327 328 330 316 293 307 307 248 329 340 338 332 330 333 86 82 25 288 275 171 221 245 162 199 175 149 160 211 244 91 217 196 169 174 122 175 205 184 191 181 124 208 262 242 294 286 166 139 152 188 208 180 141 132 240 207 143 143 162 154 128 100 85 8 56 335 327 30 93 277 274 309 8 152 226 248 229 223 216 206 182 166 180 194 200
332 330 329 325 323 322 310 283 287 275 273 329 342 336 328 330 356 79 77 345 267 327 140 225 263 186 238 108 173 208 234 41 141 242 151 158 183 135 178 201 158 172 228 127 194 258 251 226 213 163 163 206 218 208 162 149 186 232 161 121 74 73 87 86 101 104 35 58 228 285 347 102 271 292 329 19 87 225 262 255 238 222 210 181 167 172 180 184
329 327 327 324 320 322 316 277 278 275 283 325 335 330 328 353 48 69 108 256 264 277 167 156 274 185 110 125 212 227 226 278 271 134 61 128 205 59 121 136 105 138 296 29 200 255 292 280 183 150 181 207 199 180 160 162 173 125 104 81 50 37 35 39 57 82 66 16 248 261 284 108 250 290 299 334 319 264 257 274 257 215 199 181 172 171 177 179
327 325 323 318 312 309 296 284 286 270 314 329 330 331 351 38 65 103 210 249 264 296 5 337 278 40 122 173 233 223 203 248 315 106 93 111 140 50 55 81 73 74 4 347 295 295 330 343 227 244 212 160 115 120 116 41 73 93 87 79 91 358 13 26 355 41 85 250 255 258 295 86 134 267 279 278 291 281 243 246 238 199 179 175 176 171 171 166
327 324 317 308 301 280 250 254 278 290 316 325 330 359 68 72 44 185 241 296 310 296 352 288 302 352 237 236 239 211 186 208 233 150 139 148 166 186 192 181 167 79 344 272 273 332 316 261 284 303 256 128 98 119 327 5 33 82 88 76 96 4 3 0 308 356 151 228 251 255 267 110 196 248 286 309 313 310 267 233 223 200 178 168 166 163 153 145
326 322 313 301 290 270 259 263 272 281 303 320 343 41 81 107 224 222 244 302 260 276 324 307 322 322 253 285 308 258 199 217 225 191 149 136 158 202 229 192 147 131 196 205 194 357 295 302 328 329 298 102 121 142 209 305 63 124 129 114 122 103 69 249 269 301 230 241 261 267 229 180 276 275 301 316 311 323 339 18 107 88 107 123 119 115 107 105
326 322 312 299 283 272 270 269 262 257 277 328 46 66 95 143 235 232 242 254 252 297 345 334 319 315 222 156 255 260 4 263 220 172 150 122 137 208 244 247 155 126 124 153 180 161 141 312 292 200 260 288 155 170 167 152 132 170 166 132 140 153 143 203 223 183 210 234 269 287 255 150 203 257 284 297 304 37 50 47 71 79 83 87 81 77 81 74
325 321 313 297 280 274 269 257 245 228 216 65 66 89 148 201 242 227 227 244 276 330 331 324 316 320 336 339 329 347 1 260 237 137 157 155 166 196 207 211 196 143 120 156 220 151 131 233 255 250 243 179 193 217 146 113 78 251 153 105 140 185 146 129 174 170 174 143 305 290 218 194 218 273 298 307 340 41 62 60 61 65 73 88 86 78 76 68
325 324 316 290 276 276 264 240 215 190 165 96 81 160 198 213 218 193 226 253 344 328 332 338 359 76 334 333 354 344 350 160 343 140 178 177 173 194 224 231 195 166 155 162 207 169 119 247 277 316 314 204 198 204 122 103 146 213 129 150 213 180 122 107 139 81 79 109 253 256 162 311 336 315 322 348 17 24 36 58 73 68 57 68 81 84 78 67
327 329 316 286 293 283 257 218 183 172 145 91 130 207 217 219 208 195 282 351 323 326 27 9 336 121 258 308 344 322 337 5 320 275 209 251 273 196 255 270 204 189 186 155 186 201 147 242 291 335 202 278 248 137 75 77 127 121 180 195 182 80 95 104 107 18 47 135 267 335 132 256 99 191 316 353 38 29 17 30 72 86 84 89 105 106 104 105
324 328 296 300 322 292 228 185 163 152 104 93 161 237 216 221 235 199 350 359 331 329 37 189 250 174 181 219 228 269 304 341 319 297 223 275 263 190 227 268 228 201 199 158 139 229 129 190 292 275 192 297 343 75 47 347 61 123 188 179 98 100 146 90 119 133 102 169 272 347 346 226 180 207 256 237 190 135 62 39 53 77 97 130 128 110 112 121
322 332 305 338 344 270 179 162 150 123 72 138 187 257 211 230 277 278 321 336 302 274 263 210 220 320 187 190 181 192 192 208 274 262 195 254 245 195 212 252 297 0 30 129 141 273 94 136 268 283 256 331 7 51 45 315 337 15 39 23 46 128 155 160 144 148 143 159 210 338 4 260 224 217 195 202 210 167 122 93 78 80 84 88 91 94 100 108
336 17 343 356 358 168 157 145 132 89 113 171 189 222 240 257 271 264 246 258 254 248 251 218 213 260 240 218 207 183 144 158 262 270 178 180 229 225 244 231 228 4 28 71 106 90 55 112 202 285 330 32 30 58 167 200 291 6 37 11 352 59 110 141 86 87 130 138 165 155 58 265 254 212 177 196 199 167 147 132 122 126 121 109 104 108 110 104
8 48 337 6 35 160 148 124 116 102 148 178 192 206 260 274 255 286 255 225 228 242 240 240 249 252 237 243 255 236 151 144 230 269 193 168 152 201 253 224 195 187 48 42 42 90 90 126 164 293 9 65 221 257 231 203 186 134 107 71 168 134 120 123 111 310 108 125 161 154 161 262 261 197 181 194 186 174 160 146 145 160 153 143 140 133 128 119
35 71 320 8 44 178 134 73 191 97 130 179 215 205 228 246 240 293 277 240 225 227 231 243 247 240 225 230 229 218 139 124 182 261 240 183 174 186 219 191 163 92 103 88 309 192 130 105 106 93 59 187 254 298 0 40 115 101 88 95 137 127 106 122 176 233 106 108 149 121 121 260 264 263 211 203 198 201 166 151 149 151 151 145 130 109 103 101
47 237 310 1 360 200 117 42 227 348 139 219 272 239 215 230 242 270 272 264 240 227 229 240 233 196 188 223 186 66 56 87 108 180 257 7 196 218 205 129 100 67 87 130 225 213 95 82 83 0 309 322 315 326 0 41 68 60 26 19 70 78 112 142 174 178 133 152 149 93 100 257 282 328 307 175 151 68 86 131 134 129 135 146 127 104 95 97
348 239 288 1 7 136 135 50 220 275 303 305 334 296 275 256 229 246 254 283 342 295 268 318 339 4 331 118 83 47 9 69 74 49 62 38 328 311 358 30 84 90 113 185 179 170 42 109 105 84 18 353 346 340 347 2 31 42 338 335 13 62 75 100 130 74 101 182 153 120 185 250 285 352 43 122 125 116 126 146 148 149 159 168 153 144 142 136
342 340 256 353 10 38 117 117 153 255 289 316 330 308 316 302 257 282 292 69 20 8 30 334 344 4 349 32 71 29 13 53 66 32 52 16 326 342 4 5 32 80 139 161 126 108 124 140 122 118 133 166 228 267 269 301 355 2 336 345 4 38 53 76 90 69 113 186 127 132 192 248 297 24 67 124 130 127 143 159 178 183 171 169 165 160 162 156
14 27 317 331 7 27 51 37 26 323 251 156 30 351 345 324 317 349 40 67 24 25 54 2 347 21 6 22 68 36 9 17 28 51 47 356 318 337 352 4 30 29 36 74 68 79 106 71 79 125 145 174 181 205 216 154 90 73 312 351 353 358 46 86 90 91 174 149 98 213 194 165 170 59 106 169 149 147 165 171 179 194 181 173 168 160 157 150
72 32 358 334 353 3 4 13 5 339 323 77 66 20 354 345 351 359 15 37 10 19 56 27 17 37 7 6 81 61 356 358 18 38 26 336 312 320 336 21 35 3 357 45 38 66 93 39 26 97 85 138 154 147 174 121 115 159 171 41 356 359 60 85 99 163 150 120 155 263 214 138 163 324 341 289 246 179 180 182 186 192 179 153 146 148 145 138
50 84 342 0 7 359 10 355 333 343 18 37 61 40 12 20 34 12 339 356 15 19 59 34 17 25 17 12 106 74 2 17 23 11 355 344 341 339 343 17 28 3 2 25 15 77 107 92 160 93 55 41 92 107 128 120 104 122 118 76 19 30 76 98 117 159 128 136 196 211 108 111 160 338 341 319 308 280 290 324 312 0 6 76 119 128 133 137
46 60 320 353 62 63 343 320 320 0 25 22 21 35 28 29 34 15 331 359 15 9 50 66 15 15 24 33 88 81 14 53 53 359 354 352 339 358 6 351 350 3 18 27 8 71 106 83 99 104 82 49 45 76 116 112 96 66 45 35 36 51 75 87 68 65 101 115 154 123 91 58 345 333 331 331 332 19 40 14 15 20 357 358 102 119 133 141
48 60 323 1 46 11 344 345 2 28 25 12 16 18 13 23 27 13 11 43 43 356 26 79 55 32 39 42 67 91 105 130 112 347 10 19 344 4 31 338 313 343 2 19 355 19 82 101 74 90 90 34 4 33 73 93 107 86 41 22 44 64 55 50 38 28 73 94 112 104 86 41 353 357 355 358 20 50 47 29 21 19 2 7 35 27 36 102
352 258 0 65 43 1 351 358 25 46 21 5 9 1 356 3 1 7 32 38 63 53 47 117 91 39 45 47 56 80 207 176 178 231 212 168 248 311 313 282 337 351 350 5 350 358 64 109 42 62 93 251 337 54 77 81 84 71 36 8 15 58 69 51 39 15 56 140 126 98 96 58 311 339 15 32 45 48 43 28 20 19 15 27 32 11 8 54
356 319 37 89 81 9 354 6 30 52 37 347 346 350 353 349 349 19 76 31 29 45 64 155 112 57 40 31 25 333 245 212 220 242 223 205 231 238 248 270 307 14 339 353 7 12 74 116 119 86 119 244 309 18 99 77 65 32 317 329 5 95 114 91 43 17 14 114 126 126 153 224 301 354 44 49 49 47 39 25 21 18 20 34 42 33 29 43